Weather History for Viroqua, WI

Change the Weather History Date:

Monday, December 26, 2011

  Actual Average (KLSE) Record (KLSE)
Temperature  
Mean Temperature 34 °F 19 °F  
Max Temperature 42 °F 26 °F 54 °F (1936)
Min Temperature 26 °F 11 °F -24 °F (1914)
Degree Days  
Heating Degree Days 31 46  
Month to date heating degree days 1110  
Since 1 July heating degree days 2610  
Cooling Degree Days 0 0  
Month to date cooling degree days 0  
Year to date cooling degree days 782  
Moisture  
Dew Point 27 °F    
Average Humidity 77    
Maximum Humidity 92    
Minimum Humidity 51    
Precipitation  
Precipitation 0.03 in 0.04 in 0.94 in (1911)
Month to date precipitation 1.19  
Year to date precipitation 32.89  
Snow  
Snow 0.00 in 0.30 in 10.00 in (1911)
Month to date snowfall 9.7  
Since 1 July snowfall 14.0  
Snow Depth -    
Sea Level Pressure  
Sea Level Pressure 29.99 in    
Wind  
Wind Speed 12 mph (SSW)    
Max Wind Speed 24 mph    
Max Gust Speed 33 mph    
Visibility 10 miles    
Events      
T = Trace of Precipitation, MM = Missing Value Source: NWS Daily Summary

Daily Weather History Graph

Daily Weather History Graph

Search for Another Location

Airport:

Trip Planner

Search our weather history database for the weather conditions in past years. The results will help you decide how hot, cold, wet, or windy it might be!

Date:

Astronomy

Dec. 26, 2011 Rise Set
Actual Time 7:35 AM CST 4:32 PM CST
Civil Twilight 7:02 AM CST 5:05 PM CST
Nautical Twilight 6:26 AM CST 5:41 PM CST
Astronomical Twilight 5:51 AM CST 6:16 PM CST
Moon 8:52 AM CST (12/26) 7:04 PM CST (12/26)
Length of Visible Light 10h 02m
Length of Day
8h 57m
Waxing Crescent, 5% of the Moon is Illuminated
Dec 26
Waxing Crescent
Jan 1
First Quarter
Jan 9
Full
Jan 16
Last Quarter
Jan 23
New

Hourly Weather History & Observations

Time (CST) Temp. Windchill Dew Point Humidity Pressure Visibility Wind Dir Wind Speed Gust Speed Precip Events Conditions
12:15 AM 28.0 °F 21.7 °F 24.4 °F 86% 30.22 in 10.0 mi SSW 5.8 mph - N/A   Clear
12:35 AM 27.7 °F 22.4 °F 24.4 °F 88% 30.22 in 10.0 mi SSW 4.6 mph - N/A   Clear
12:55 AM 27.1 °F 18.9 °F 24.3 °F 89% 30.21 in 10.0 mi SSW 8.1 mph - N/A   Clear
1:15 AM 26.6 °F 19.1 °F 24.1 °F 90% 30.21 in 10.0 mi SSW 6.9 mph - N/A   Clear
1:35 AM 26.4 °F 18.9 °F 24.3 °F 92% 30.20 in 10.0 mi SSW 6.9 mph - N/A   Clear
1:55 AM 26.8 °F 20.2 °F 24.3 °F 90% 30.20 in 10.0 mi South 5.8 mph - N/A   Clear
2:15 AM 26.6 °F 19.1 °F 24.3 °F 91% 30.19 in 10.0 mi South 6.9 mph - N/A   Clear
2:35 AM 26.6 °F 19.1 °F 24.1 °F 90% 30.18 in 10.0 mi South 6.9 mph - N/A   Clear
3:15 AM 27.1 °F 19.7 °F 24.6 °F 90% 30.17 in 10.0 mi South 6.9 mph - N/A   Clear
3:35 AM 26.8 °F 19.3 °F 24.1 °F 90% 30.16 in 10.0 mi South 6.9 mph - N/A   Clear
3:55 AM 26.2 °F 19.6 °F 23.9 °F 91% 30.16 in 10.0 mi South 5.8 mph - N/A   Clear
4:15 AM 26.1 °F 16.8 °F 24.1 °F 92% 30.15 in 10.0 mi SSW 9.2 mph - N/A   Clear
4:35 AM 26.6 °F 18.2 °F 24.3 °F 91% 30.14 in 10.0 mi SSW 8.1 mph - N/A   Clear
4:55 AM 27.3 °F 19.9 °F 24.6 °F 90% 30.12 in 10.0 mi South 6.9 mph - N/A   Clear
5:15 AM 28.4 °F 21.2 °F 25.0 °F 87% 30.11 in 10.0 mi South 6.9 mph - N/A   Clear
5:35 AM 28.2 °F 19.5 °F 24.6 °F 86% 30.10 in 10.0 mi South 9.2 mph - N/A   Clear
6:35 AM 26.8 °F 19.3 °F 24.1 °F 90% 30.10 in 10.0 mi South 6.9 mph - N/A   Clear
6:55 AM 26.8 °F 15.9 °F 24.4 °F 91% 30.09 in 10.0 mi SSW 12.7 mph - N/A   Clear
7:15 AM 28.4 °F 17.0 °F 25.3 °F 88% 30.09 in 10.0 mi SSW 15.0 mph - N/A   Clear
7:35 AM 29.1 °F 17.5 °F 25.5 °F 86% 30.08 in 10.0 mi SSW 16.1 mph - N/A   Clear
7:55 AM 29.5 °F 18.4 °F 25.7 °F 86% 30.08 in 10.0 mi SSW 15.0 mph - N/A   Clear
8:15 AM 30.0 °F 18.7 °F 25.9 °F 85% 30.07 in 10.0 mi South 16.1 mph 20.7 mph N/A   Clear
8:35 AM 30.6 °F 19.4 °F 26.1 °F 83% 30.06 in 10.0 mi SSW 16.1 mph - N/A   Clear
8:55 AM 31.3 °F 20.3 °F 26.4 °F 82% 30.05 in 10.0 mi SSW 16.1 mph 21.9 mph N/A   Clear
9:15 AM 32.4 °F 20.3 °F 27.1 °F 81% 30.05 in 10.0 mi SSW 20.7 mph 26.5 mph N/A   Clear
9:35 AM 33.3 °F 21.8 °F 27.3 °F 79% 30.04 in 10.0 mi SSW 19.6 mph 25.3 mph N/A   Clear
9:55 AM 34.3 °F 22.3 °F 27.5 °F 76% 30.03 in 10.0 mi SSW 23.0 mph 31.1 mph N/A   Clear
10:15 AM 35.2 °F 24.1 °F 27.5 °F 73% 30.02 in 10.0 mi SSW 20.7 mph 29.9 mph N/A   Clear
10:35 AM 36.1 °F 25.2 °F 27.7 °F 71% 30.01 in 10.0 mi SSW 20.7 mph 25.3 mph N/A   Clear
10:55 AM 37.0 °F 26.7 °F 27.9 °F 69% 30.00 in 10.0 mi SSW 19.6 mph 31.1 mph N/A   Clear
11:15 AM 38.1 °F 27.6 °F 27.9 °F 67% 29.98 in 10.0 mi SSW 21.9 mph 29.9 mph N/A   Clear
11:35 AM 38.7 °F 27.8 °F 27.7 °F 65% 29.96 in 10.0 mi SSW 24.2 mph 33.4 mph N/A   Clear
11:55 AM 39.6 °F 29.2 °F 27.7 °F 62% 29.95 in 10.0 mi SSW 23.0 mph 29.9 mph N/A   Clear
12:15 PM 40.3 °F 31.3 °F 27.3 °F 60% 29.94 in 10.0 mi SSW 18.4 mph 31.1 mph N/A   Clear
12:35 PM 41.2 °F 32.1 °F 27.0 °F 57% 29.93 in 10.0 mi SSW 19.6 mph 31.1 mph N/A   Clear
12:55 PM 41.7 °F 32.3 °F 26.8 °F 55% 29.91 in 10.0 mi SW 21.9 mph 27.6 mph N/A   Clear
1:15 PM 42.1 °F 33.1 °F 26.4 °F 54% 29.90 in 10.0 mi SSW 20.7 mph 31.1 mph N/A   Clear
1:35 PM 42.6 °F 33.5 °F 25.9 °F 52% 29.88 in 10.0 mi SW 21.9 mph 33.4 mph N/A   Clear
1:55 PM 42.8 °F 33.3 °F 25.5 °F 51% 29.87 in 10.0 mi SSW 24.2 mph 31.1 mph N/A   Clear
2:15 PM 42.4 °F 33.3 °F 25.5 °F 51% 29.86 in 10.0 mi SSW 21.9 mph 29.9 mph N/A   Clear
2:35 PM 41.4 °F 33.0 °F 25.5 °F 53% 29.86 in 10.0 mi SSW 17.3 mph 26.5 mph N/A   Clear
2:55 PM 41.0 °F 33.9 °F 25.9 °F 55% 29.86 in 10.0 mi SW 12.7 mph - N/A   Clear
3:15 PM 41.0 °F 31.4 °F 26.4 °F 56% 29.85 in 10.0 mi SSW 21.9 mph - N/A   Clear
3:35 PM 40.3 °F 31.3 °F 26.6 °F 58% 29.84 in 10.0 mi SW 18.4 mph 31.1 mph N/A   Clear
4:35 PM 38.5 °F 29.9 °F 27.3 °F 64% 29.86 in 10.0 mi SW 15.0 mph 24.2 mph N/A   Scattered Clouds
4:55 PM 38.7 °F 28.3 °F 27.5 °F 64% 29.84 in 10.0 mi SSW 21.9 mph 26.5 mph N/A   Scattered Clouds
5:15 PM 38.7 °F 28.8 °F 27.9 °F 65% 29.84 in 10.0 mi SSW 19.6 mph 27.6 mph N/A   Overcast
5:35 PM 38.7 °F 28.8 °F 28.2 °F 66% 29.83 in 10.0 mi SW 19.6 mph 32.2 mph N/A   Overcast
5:55 PM 38.3 °F 28.4 °F 29.7 °F 71% 29.83 in 7.0 mi SW 19.6 mph 25.3 mph N/A   Overcast
6:15 PM 37.6 °F 28.1 °F 30.7 °F 76% 29.83 in 10.0 mi SW 17.3 mph 26.5 mph N/A   Overcast
6:35 PM 37.4 °F 27.5 °F 30.7 °F 77% 29.82 in 10.0 mi SW 18.4 mph 25.3 mph N/A   Overcast
6:55 PM 36.9 °F 27.1 °F 31.8 °F 82% 29.80 in 5.0 mi South 17.3 mph 24.2 mph 0.03 in   Overcast
7:15 PM 36.1 °F 28.2 °F 32.4 °F 86% 29.81 in 10.0 mi SSW 11.5 mph - N/A   Overcast
7:35 PM 35.8 °F 27.8 °F 32.7 °F 89% 29.81 in 10.0 mi SSW 11.5 mph - N/A   Overcast
7:55 PM 35.6 °F 27.5 °F 33.1 °F 91% 29.81 in 10.0 mi SSW 11.5 mph - N/A   Overcast
8:15 PM 36.1 °F 26.5 °F 32.7 °F 87% 29.79 in 10.0 mi SSW 16.1 mph - N/A   Overcast
8:35 PM 35.8 °F 25.7 °F 32.0 °F 86% 29.77 in 10.0 mi SSW 17.3 mph - N/A   Scattered Clouds
8:55 PM 35.6 °F 26.6 °F 32.0 °F 87% 29.77 in 10.0 mi SSW 13.8 mph - N/A   Clear
9:15 PM 35.6 °F 26.6 °F 31.8 °F 86% 29.76 in 10.0 mi SW 13.8 mph - N/A   Clear
9:35 PM 35.6 °F 26.6 °F 31.6 °F 85% 29.75 in 10.0 mi SW 13.8 mph - N/A   Clear
9:55 PM 35.4 °F 26.0 °F 31.5 °F 85% 29.74 in 10.0 mi SW 15.0 mph - N/A   Clear
10:15 PM 35.2 °F 26.6 °F 31.5 °F 86% 29.73 in 10.0 mi SW 12.7 mph - N/A   Clear
10:35 PM 34.9 °F 27.1 °F 31.1 °F 86% 29.71 in 10.0 mi SW 10.4 mph - N/A   Clear
11:15 PM 34.3 °F 25.9 °F 30.9 °F 87% 29.70 in 10.0 mi SSW 11.5 mph - N/A   Clear
11:35 PM 34.2 °F 25.7 °F 30.9 °F 88% 29.69 in 10.0 mi SW 11.5 mph - N/A   Clear
11:55 PM 34.0 °F 26.6 °F 30.9 °F 89% 29.69 in 10.0 mi SW 9.2 mph - N/A   Clear